Weather reports worldwide

Advertisment
Grünow, Germany (10289): temperature & dewpoint: 13.12.2018 05:00:00 - 19.12.2018 05:00:00 (CET)Grünow, Germany (10289): temperature 5cm & temperature -5cm: 13.12.2018 05:00:00 - 19.12.2018 05:00:00 (CET)Grünow, Germany (10289): temperature -20cm & temperature -100cm: 13.12.2018 05:00:00 - 19.12.2018 05:00:00 (CET)Grünow, Germany (10289): wind speed & gusts: 13.12.2018 05:00:00 - 19.12.2018 05:00:00 (CET)Grünow, Germany (10289): wind direction: 13.12.2018 05:00:00 - 19.12.2018 05:00:00 (CET)Grünow, Germany (10289): reduced air pressure: 13.12.2018 05:00:00 - 19.12.2018 05:00:00 (CET)Grünow, Germany (10289): visibility: 13.12.2018 05:00:00 - 19.12.2018 05:00:00 (CET)Grünow, Germany (10289): sunshine duration: 13.12.2018 05:00:00 - 19.12.2018 05:00:00 (CET)Grünow, Germany (10289): precipitation: 13.12.2018 05:00:00 - 19.12.2018 05:00:00 (CET)
Date & Time tt [°C] td [°C] tt 5cm [°C] tt -5cm [°C] tt -20cm [°C] tt -100cm [°C] ff [km/h] ff [kn] fx [km/h] fx [kn] dd ppp [hPa] vv [km] sd [min] rr [mm]
19.12.2018 05:00:00 0,2 -0,1 -0,4 0,7 1,9 5,6 18 10 25 13 ESE 1021,1 5 0 0,0
19.12.2018 04:00:00 0,2 0,1 -0,6 0,7 1,9 5,6 15 8 24 13 ESE 1021,7 3,6 0 0,0
19.12.2018 03:00:00 0,6 0,6 -0,2 1,3 1,9 5,6 12 7 31 17 SSE 1022,4 3,1 0 0,0
19.12.2018 02:00:00 1,1 1,1 1,0 1,6 1,9 5,6 21 11 35 19 SE 1022,4 3,7 0 0,0
19.12.2018 01:00:00 1,2 1,2 1,2 1,6 1,9 5,7 16 9 25 13 SE 1022,8 0,5 0 0,0
19.12.2018 00:00:00 1,4 1,4 1,4 1,6 1,8 5,7 17 9 29 16 SE 1023,4 0,3 0 0,0
18.12.2018 23:00:00 1,6 1,6 1,6 1,6 1,8 5,7 17 9 25 14 SE 1023,7 0,3 0 0,0
18.12.2018 22:00:00 1,5 1,5 1,5 1,6 1,8 5,7 14 7 20 11 SE 1024,4 0,2 0 0,0
18.12.2018 21:00:00 1,8 1,8 1,7 1,5 1,7 5,7 11 6 19 10 SSE 1024,9 0,2 0 0,0
18.12.2018 20:00:00 1,5 1,5 1,5 1,4 1,7 5,7 13 7 20 11 SE 1025,1 0,3 0 0,0
18.12.2018 19:00:00 1,9 1,9 1,8 1,2 1,7 5,7 12 7 18 10 SE 1025,1 0,1 0 0,0
18.12.2018 18:00:00 1,5 1,5 1,2 1,1 1,7 5,7 11 6 16 9 SE 1025,2 0,1 0 0,0
18.12.2018 17:00:00 1,4 1,3 1,1 1,0 1,6 5,7 10 5 15 8 SE 1025,1 0,1 0 0,0
18.12.2018 16:00:00 2,4 2,2 2,0 1,4 1,6 5,7 12 6 14 8 SSE 1025,1 2,0 0 0,0
18.12.2018 15:00:00 2,6 2,4 2,4 1,0 1,5 5,7 10 5 14 8 SSE 1025,0 2,2 0 0,1
18.12.2018 14:00:00 1,9 1,7 1,8 0,6 1,5 5,7 10 5 14 7 SE 1025,2 1,4 0 0,3
18.12.2018 13:00:00 1,7 1,4 1,6 0,5 1,5 5,7 9 5 13 7 SE 1025,4 1,1 0 0,0
18.12.2018 12:00:00 1,4 1,1 1,4 0,4 1,5 5,8 5 3 14 8 ESE 1025,8 1,7 0 0,0
18.12.2018 11:00:00 1,1 1,0 1,0 0,4 1,5 5,8 11 6 14 8 SSE 1025,9 1,5 0 0,0
18.12.2018 10:00:00 0,8 0,7 0,7 0,4 1,5 5,8 11 6 16 9 SE 1025,7 0,7 0 0,0
18.12.2018 09:00:00 0,6 0,4 0,5 0,4 1,6 5,8 8 4 16 8 SE 1025,6 1,5 0 0,4
18.12.2018 08:00:00 0,6 0,4 0,4 0,4 1,6 5,8 9 5 14 7 SE 1025,4 1,3 0 0,2
18.12.2018 07:00:00 0,6 0,3 0,4 0,4 1,6 5,8 8 4 14 8 SE 1025,1 2,1 0 0,4
18.12.2018 06:00:00 0,5 0,0 0,3 0,4 1,6 5,8 10 6 17 9 SE 1024,8 1,9 0 0,4
18.12.2018 05:00:00 0,3 -0,2 0,2 0,4 1,6 5,8 11 6 17 9 SE 1024,9 1,9 0 0,3
18.12.2018 04:00:00 0,2 -0,4 0,1 0,4 1,6 5,8 10 6 16 9 SE 1025,1 2,3 0 0,0
18.12.2018 03:00:00 0,1 -0,6 0,0 0,4 1,6 5,8 10 6 16 8 SE 1025,1 2,8 0 0,0
18.12.2018 02:00:00 0,0 -0,5 -0,1 0,4 1,6 5,8 7 4 12 7 SE 1025,0 2,6 0 0,0
18.12.2018 01:00:00 0,0 -0,4 -0,1 0,4 1,6 5,8 9 5 19 10 S 1025,0 2,6 0 0,0
18.12.2018 00:00:00 -0,2 -0,7 -0,5 0,4 1,6 5,9 11 6 17 9 E 1024,8 2,6 0 0,0
17.12.2018 23:00:00 0,0 -0,4 -0,1 0,4 1,6 5,9 6 3 8 4 SSE 1025,1 2,8 0 0,0
17.12.2018 22:00:00 0,0 -0,5 -0,3 0,4 1,6 5,9 4 2 9 5 SSE 1024,9 2,1 0 0,0
17.12.2018 21:00:00 -0,1 -0,9 -0,2 0,4 1,6 5,9 8 4 12 6 SSE 1024,8 3,9 0 0,0
17.12.2018 20:00:00 -0,2 -1,1 -0,2 0,4 1,6 5,9 9 5 13 7 SE 1024,3 4,8 0 0,0
17.12.2018 19:00:00 -0,3 -1,1 -0,3 0,4 1,6 5,9 8 5 12 6 SE 1023,8 4,6 0 0,0
17.12.2018 18:00:00 -0,3 -1,1 -0,3 0,4 1,6 5,9 7 4 10 5 SE 1023,4 4,2 0 0,0
17.12.2018 17:00:00 -0,3 -1,2 -0,3 0,3 1,6 5,9 8 4 11 6 SSE 1022,8 3,4 0 0,0
17.12.2018 16:00:00 -0,2 -1,4 -0,2 0,3 1,6 5,9 7 4 12 6 SE 1022,2 4,9 0 0,0
17.12.2018 15:00:00 -0,2 -1,3 -0,1 0,3 1,6 5,9 10 5 12 7 SSE 1021,6 6 0 0,0
17.12.2018 14:00:00 -0,2 -1,5 0,0 0,3 1,6 5,9 8 4 9 5 SSE 1021,2 6 0 0,0
17.12.2018 13:00:00 -0,2 -1,8 0,0 0,3 1,6 6,0 5 3 7 4 SSE 1020,8 7 0 0,0
17.12.2018 12:00:00 -0,4 -1,8 -0,1 0,3 1,6 6,0 3 2 7 4 SSE 1020,7 6 0 0,0
17.12.2018 11:00:00 -0,8 -2,0 -0,5 0,3 1,6 6,0 4 2 8 5 S 1020,8 6 0 0,0
17.12.2018 10:00:00 -1,0 -1,9 -0,9 0,3 1,6 6,0 6 3 9 5 S 1020,5 4,3 0 0,0
17.12.2018 09:00:00 -1,3 -2,1 -1,2 0,3 1,6 6,0 7 4 10 5 S 1019,7 4,8 0 0,0
17.12.2018 08:00:00 -1,5 -2,4 -1,6 0,3 1,6 6,0 6 4 11 6 SSE 1019,0 6 0 0,0
17.12.2018 07:00:00 -1,7 -2,7 -1,8 0,3 1,6 6,0 8 4 11 6 SSE 1018,3 6 0 0,0
17.12.2018 06:00:00 -2,0 -3,1 -2,3 0,3 1,7 6,0 7 4 10 5 SSE 1017,9 8 0 0,0
17.12.2018 05:00:00 -2,1 -3,7 -2,3 0,3 1,7 6,0 8 5 10 6 SSE 1017,4 11 0 0,0
17.12.2018 04:00:00 -2,3 -4,2 -2,7 0,3 1,7 6,0 7 4 10 5 SE 1017,2 12 0 0,0
17.12.2018 03:00:00 -2,4 -4,2 -3,3 0,3 1,7 6,0 8 4 13 7 ESE 1016,9 14 0 0,0
17.12.2018 02:00:00 -2,0 -4,6 -2,7 0,4 1,7 6,0 9 5 15 8 SE 1016,6 16 0 0,0
17.12.2018 01:00:00 -1,9 -4,8 -2,6 0,4 1,7 6,1 10 5 16 9 SE 1016,4 18 0 0,0
17.12.2018 00:00:00 -2,1 -4,5 -2,7 0,4 1,7 6,1 10 6 14 7 ESE 1016,3 17 0 0,0
16.12.2018 23:00:00 -1,6 -4,5 -2,4 0,4 1,7 6,1 9 5 15 8 SE 1016,1 19 0 0,0
16.12.2018 22:00:00 -1,2 -4,5 -1,8 0,4 1,7 6,1 11 6 19 10 SE 1015,9 18 0 0,0
16.12.2018 21:00:00 -1,1 -4,4 -1,3 0,4 1,8 6,1 11 6 19 10 SE 1015,8 19 0 0,0
16.12.2018 20:00:00 -1,0 -4,4 -1,3 0,4 1,8 6,1 11 6 20 11 SE 1015,7 20 0 0,0
16.12.2018 19:00:00 -1,0 -4,7 -1,1 0,4 1,8 6,1 12 7 20 11 SE 1015,7 18 0 0,0
16.12.2018 18:00:00 -1,0 -4,6 -1,2 0,4 1,8 6,1 13 7 22 12 SE 1015,7 19 0 0,0
16.12.2018 17:00:00 -0,9 -4,6 -1,1 0,5 1,8 6,1 14 7 22 12 SE 1015,4 22 0 0,0
16.12.2018 16:00:00 -0,9 -4,0 -1,0 0,5 1,8 6,1 12 7 20 11 ESE 1015,5 17 0 0,0
16.12.2018 15:00:00 -0,9 -3,5 -1,0 0,5 1,8 6,1 13 7 24 13 ESE 1015,7 16 0 0,0
16.12.2018 14:00:00 -0,8 -3,1 -0,9 0,5 1,8 6,2 13 7 21 11 ESE 1015,9 12 0 0,0
16.12.2018 13:00:00 -0,8 -3,0 -0,8 0,5 1,8 6,2 12 7 23 12 SE 1016,7 11 0 0,0
16.12.2018 12:00:00 -0,7 -3,2 -0,8 0,5 1,8 6,2 12 6 19 11 ESE 1017,4 13 0 0,0
16.12.2018 11:00:00 -0,8 -3,4 -0,8 0,5 1,9 6,2 14 8 23 13 ESE 1018,2 15 0 0,0
16.12.2018 10:00:00 -1,0 -3,7 -1,1 0,5 1,9 6,2 16 9 26 14 SE 1018,7 15 0 0,0
16.12.2018 09:00:00 -1,5 -4,0 -2,3 0,5 1,9 6,2 16 9 22 12 ESE 1019,0 17 0 0,0
16.12.2018 08:00:00 -1,9 -4,1 -2,1 0,5 1,9 6,2 14 8 19 10 E 1019,5 15 0 0,0
16.12.2018 07:00:00 -2,2 -4,2 -3,1 0,5 1,9 6,2 13 7 20 11 E 1020,1 12 0 0,0
16.12.2018 06:00:00 -1,7 -3,6 -2,4 0,5 1,9 6,2 11 6 22 12 E 1021,1 12 0 0,0
16.12.2018 05:00:00 -1,2 -3,6 -2,3 0,6 2,0 6,2 16 9 29 16 E 1021,4 12 0 0,0
16.12.2018 04:00:00 -0,9 -2,7 -1,5 0,6 2,0 6,3 16 9 27 14 ESE 1022,1 10 0 0,0
16.12.2018 03:00:00 -0,8 -2,4 -1,3 0,6 2,0 6,3 14 8 22 12 E 1022,9 10 0 0,0
16.12.2018 02:00:00 -0,8 -2,3 -1,0 0,7 2,0 6,3 14 8 24 13 ESE 1023,6 10 0 0,0
16.12.2018 01:00:00 -0,6 -2,2 -1,4 0,7 2,0 6,3 16 9 28 15 ESE 1024,2 10 0 0,0
16.12.2018 00:00:00 0,0 -1,2 -0,2 0,8 2,0 6,3 11 6 19 10 E 1024,8 8 0 0,0
15.12.2018 23:00:00 0,0 -1,1 -0,1 0,8 2,0 6,3 10 5 14 8 E 1025,7 7 0 0,0
15.12.2018 22:00:00 0,0 -0,8 -0,4 0,8 2,0 6,3 8 4 16 9 ESE 1026,3 7 0 0,0
15.12.2018 21:00:00 0,1 -0,8 0,0 0,9 2,0 6,3 10 5 14 8 E 1027,0 7 0 0,0
15.12.2018 20:00:00 0,0 -0,9 -0,1 0,8 2,0 6,3 9 5 14 8 E 1027,2 6 0 0,0
15.12.2018 19:00:00 -0,2 -1,3 -0,2 0,8 2,0 6,3 6 4 13 7 ENE 1027,9 7 0 0,0
15.12.2018 18:00:00 -0,3 -1,3 -0,3 0,8 2,1 6,4 6 4 10 5 ENE 1028,3 7 0 0,0
15.12.2018 17:00:00 -0,3 -1,5 -0,4 0,8 2,1 6,4 4 2 7 4 ENE 1028,9 10 0 0,0
15.12.2018 16:00:00 -0,4 -1,3 -0,6 0,9 2,1 6,4 4 2 8 4 N 1029,1 7 0 0,0
15.12.2018 15:00:00 -0,2 -1,5 -0,2 0,9 2,1 6,4 6 3 9 5 NNE 1029,2 9 0 0,0
15.12.2018 14:00:00 -0,2 -1,8 0,1 0,8 2,1 6,4 5 3 10 5 NE 1029,2 11 0 0,0
15.12.2018 13:00:00 -0,3 -1,8 0,1 0,7 2,1 6,4 6 3 9 5 NE 1029,8 13 0 0,0
15.12.2018 12:00:00 -0,6 -2,1 -0,1 0,7 2,1 6,4 6 3 13 7 NE 1030,2 11 0 0,0
15.12.2018 11:00:00 -0,6 -2,1 -0,6 0,7 2,1 6,4 6 3 11 6 NE 1030,7 12 0 0,0
15.12.2018 10:00:00 -1,1 -2,5 -1,0 0,6 2,1 6,4 5 3 10 6 NNE 1030,8 13 0 0,0
15.12.2018 09:00:00 -1,9 -2,9 -3,5 0,6 2,1 6,4 5 3 9 5 NNE 1030,9 13 0 0,0
15.12.2018 08:00:00 -1,5 -2,6 -2,7 0,7 2,1 6,4 6 4 9 5 NNE 1030,4 14 0 0,0
15.12.2018 07:00:00 -1,1 -2,8 -1,8 0,7 2,2 6,5 5 3 12 7 NE 1030,4 19 0 0,0
15.12.2018 06:00:00 -0,9 -3,3 -1,1 0,7 2,2 6,5 7 4 12 7 ENE 1030,2 23 0 0,0
15.12.2018 05:00:00 -0,9 -3,3 -1,1 0,7 2,2 6,5 6 3 12 6 NE 1030,2 26 0 0,0
15.12.2018 04:00:00 -0,8 -3,2 -1,0 0,8 2,2 6,5 5 3 10 6 ENE 1030,2 23 0 0,0
15.12.2018 03:00:00 -0,8 -3,6 -1,0 0,8 2,2 6,5 6 3 14 7 E 1030,3 26 0 0,0
15.12.2018 02:00:00 -0,7 -3,7 -0,9 0,8 2,2 6,5 7 4 13 7 ENE 1030,2 26 0 0,0
15.12.2018 01:00:00 -0,7 -3,2 -0,9 0,8 2,2 6,5 5 3 12 7 ESE 1030,2 27 0 0,0
15.12.2018 00:00:00 -0,7 -3,6 -0,8 0,8 2,3 6,5 8 4 16 9 E 1030,0 28 0 0,0
14.12.2018 23:00:00 -0,6 -3,1 -0,7 0,8 2,3 6,5 10 5 17 9 E 1030,1 24 0 0,0
14.12.2018 22:00:00 -0,4 -2,6 -0,6 0,8 2,3 6,6 10 5 21 11 E 1029,9 20 0 0,0
14.12.2018 21:00:00 -0,4 -2,7 -0,5 0,8 2,3 6,6 13 7 21 11 E 1029,7 22 0 0,0
14.12.2018 20:00:00 -0,3 -2,5 -0,5 0,9 2,4 6,6 10 5 19 11 E 1029,4 19 0 0,0
14.12.2018 19:00:00 -0,3 -2,3 -0,4 0,9 2,4 6,6 7 4 14 7 E 1029,2 14 0 0,0
14.12.2018 18:00:00 -0,2 -1,9 -0,4 0,9 2,4 6,6 9 5 15 8 E 1029,0 16 0 0,0
14.12.2018 17:00:00 -0,2 -2,1 -0,4 0,9 2,4 6,6 10 5 17 9 E 1028,7 18 0 0,0
14.12.2018 16:00:00 -0,2 -2,1 -0,3 1,1 2,5 6,6 11 6 19 10 E 1028,4 18 0 0,0
14.12.2018 15:00:00 -0,1 -2,0 -0,2 1,2 2,5 6,6 11 6 18 10 E 1028,1 15 0 0,0
14.12.2018 14:00:00 -0,1 -2,2 -0,1 1,4 2,5 6,6 9 5 18 10 E 1027,9 16 0 0,0
14.12.2018 13:00:00 0,0 -2,2 0,2 1,6 2,4 6,6 10 5 18 10 E 1027,7 18 0 0,0
14.12.2018 12:00:00 -0,1 -2,3 0,1 1,3 2,4 6,7 9 5 14 8 E 1027,6 18 0 0,0
14.12.2018 11:00:00 -0,3 -1,9 -0,3 1,0 2,4 6,7 6 3 15 8 E 1027,6 15 0 0,0
14.12.2018 10:00:00 -0,3 -2,2 -0,5 1,0 2,5 6,7 10 5 16 9 ESE 1027,4 16 0 0,0
14.12.2018 09:00:00 -0,2 -1,7 -0,3 0,9 2,5 6,7 6 3 10 5 ESE 1026,8 13 0 0,0
14.12.2018 08:00:00 -0,2 -1,7 -0,5 1,0 2,5 6,7 5 3 10 6 E 1026,4 13 0 0,0
14.12.2018 07:00:00 -0,1 -1,3 -0,4 1,0 2,5 6,7 5 3 9 5 E 1025,9 11 0 0,0
14.12.2018 06:00:00 0,0 -1,4 -0,4 1,0 2,6 6,7 3 2 9 5 ENE 1025,7 14 0 0,0
14.12.2018 05:00:00 0,1 -1,5 -0,2 1,0 2,6 6,7 8 5 14 8 ESE 1025,6 16 0 0,0
14.12.2018 04:00:00 0,3 -1,1 0,0 1,1 2,6 6,7 8 5 16 9 E 1025,5 15 0 0,0
14.12.2018 03:00:00 0,3 -1,1 0,1 1,2 2,7 6,7 8 4 14 8 E 1025,7 11 0 0,0
14.12.2018 02:00:00 0,4 -1,0 0,1 1,2 2,7 6,7 7 4 14 8 ENE 1025,4 12 0 0,0
14.12.2018 01:00:00 0,5 -1,0 0,2 1,2 2,7 6,8 6 4 11 6 ENE 1025,2 12 0 0,0
14.12.2018 00:00:00 0,4 -1,1 0,2 1,3 2,8 6,8 5 3 10 6 ENE 1025,1 12 0 0,0
13.12.2018 23:00:00 0,5 -0,9 0,1 1,3 2,8 6,8 8 4 14 7 NE 1025,1 16 0 0,0
13.12.2018 22:00:00 0,7 -0,9 0,4 1,4 2,8 6,8 10 5 17 9 NE 1025,1 14 0 0,0
13.12.2018 21:00:00 0,7 -0,5 0,2 1,5 2,9 6,8 7 4 14 8 NE 1024,8 18 0 0,0
13.12.2018 20:00:00 0,7 -0,6 0,2 1,5 2,9 6,8 5 3 11 6 ENE 1024,6 20 0 0,0
13.12.2018 19:00:00 0,9 -0,5 0,4 1,6 2,9 6,8 5 3 15 8 ENE 1024,5 23 0 0,0
13.12.2018 18:00:00 1,1 -0,5 0,7 1,8 2,9 6,8 10 6 16 9 NE 1024,7 27 0 0,0
13.12.2018 17:00:00 1,2 -0,4 0,7 2,0 2,9 6,8 9 5 16 9 NNE 1024,5 22 0 0,0
13.12.2018 16:00:00 1,6 -0,5 1,1 2,3 2,9 6,8 11 6 16 8 NE 1024,6 18 0 0,0
13.12.2018 15:00:00 1,9 0,4 1,6 2,5 2,8 6,9 0 0 12 7 N 1024,6 14 0 0,0
13.12.2018 14:00:00 1,4 0,5 1,1 2,3 2,8 6,9 8 4 15 8 NE 1024,7 8 0 0,0
13.12.2018 13:00:00 1,5 0,7 1,7 1,8 2,8 6,9 9 5 16 9 NE 1024,9 8 0 0,0
13.12.2018 12:00:00 1,3 0,7 1,3 1,2 2,8 6,9 6 4 17 9 ENE 1025,0 7 0 0,0
13.12.2018 11:00:00 1,0 0,5 0,8 1,1 2,8 6,9 10 5 16 9 ENE 1025,5 4,6 0 0,0
13.12.2018 10:00:00 0,8 0,4 0,6 1,0 2,8 6,9 9 5 15 8 E 1025,5 4,7 0 0,0
13.12.2018 09:00:00 0,8 0,5 0,5 1,0 2,9 6,9 8 4 15 8 NE 1025,4 10 0 0,0
13.12.2018 08:00:00 0,8 0,4 0,3 1,0 2,9 6,9 9 5 14 8 NE 1025,2 25 0 0,0
13.12.2018 07:00:00 0,9 0,6 0,4 1,0 2,9 6,9 8 5 13 7 NE 1025,2 16 0 0,0
13.12.2018 06:00:00 0,8 0,7 0,0 1,0 3,0 6,9 8 5 13 7 NE 1025,3 16 0 0,0
13.12.2018 05:00:00 0,2 0,1 -1,7 1,0 3,0 6,9 6 4 12 7 NE 1025,8 6 0 0,0

tt = temperature
td = dewpoint
tt 5cm = temperature 5cm
tt -5cm = temperature -5cm
tt -20cm = temperature -20cm
tt -100cm = temperature -100cm
ff = wind speed
fx = gusts
dd = wind direction
ppp = reduced air pressure
vv = visibility
sd = sunshine duration
rr = precipitation

Next stations